Home   Weather   Toccoa   Past weeks

Flag for USA Past Weather in Toccoa, Georgia, USA — Yesterday and Last 2 Weeks

Now
66 °F

Sunny.


Feels Like: 66 °F
Forecast: 53 / 78 °F
Wind: No wind

Location: Clemson-Oconee County Airport

Current Time: Sep 30, 2016 at 11:13:23 AM

Latest Report: Sep 30, 2016 at 9:54 AM


Visibility: 10 mi

Pressure: 30.00 "Hg

Humidity: 61%

Dew Point: 52 °F

Location of ToccoaLocation

Past Weather in Toccoa — Graph

°F

Toccoa Temperature Yesterday

Maximum temperature yesterday: 85 °F (at 2:54 PM)
Minimum temperature yesterday: 59 °F (at 5:54 AM)
Average temperature yesterday: 71 °F

High & Low Weather Summary for the Past Weeks

 TemperatureHumidityPressure
High96 °F (Sep 24, 2:54 PM)91% (Sep 19, 6:54 AM)30.26 "Hg (Sep 19, 6:54 AM)
Low54 °F (Sep 30, 5:54 AM)24% (Sep 29, 5:54 PM)29.85 "Hg (Sep 28, 4:54 PM)
Average78 °F62%30.03 "Hg
* Reported Sep 15 9:54 AM — Sep 30 9:54 AM, Toccoa, Weather by CustomWeather, © 2016

Note: Actual official high and low records may vary slightly from our data, if they occured in-between our weather recording intervals... More about our weather records

Advertising

Toccoa Weather History for the Previous 24 Hours

Scroll right to see more
 ConditionsComfort  
Time TempWeatherWind HumidityBarometerVisibility
9:54 AM
Fri, Sep 30
66 °FSunny.No wind61%30.00 "Hg10 mi
8:54 AM60 °FSunny.No wind69%29.99 "Hg10 mi
7:54 AM54 °FSunny.6 mph77%29.98 "Hg10 mi
6:54 AM54 °FClear.7 mph77%29.97 "Hg10 mi
5:54 AM54 °FClear.6 mph80%29.96 "Hg10 mi
4:54 AM56 °FClear.6 mph75%29.96 "Hg10 mi
3:54 AM55 °FClear.7 mph77%29.95 "Hg10 mi
2:54 AM59 °FClear.5 mph67%29.95 "Hg10 mi
1:54 AM60 °FClear.6 mph65%29.95 "Hg10 mi
12:54 AM61 °FClear.8 mph62%29.97 "Hg10 mi
11:54 PM
Thu, Sep 29
63 °FClear.8 mph56%29.98 "Hg10 mi
10:54 PM66 °FClear.10 mph49%29.98 "Hg10 mi
9:54 PM66 °FClear.9 mph49%29.99 "Hg10 mi
8:54 PM70 °FClear.9 mph38%29.98 "Hg10 mi
7:54 PM72 °FClear.10 mph35%29.97 "Hg10 mi
6:54 PM78 °FSunny.6 mph25%29.95 "Hg10 mi
5:54 PM80 °FSunny.6 mph24%29.93 "Hg10 mi
4:54 PM83 °FSunny.12 mph27%29.91 "Hg10 mi
3:54 PM83 °FSunny.7 mph31%29.90 "Hg10 mi
2:54 PM85 °FScattered clouds.14 mph29%29.91 "Hg10 mi
1:54 PM84 °FScattered clouds.10 mph31%29.92 "Hg10 mi
12:54 PM81 °FSunny.5 mph35%29.94 "Hg10 mi
11:54 AM79 °FSunny.No wind44%29.96 "Hg10 mi
Weather by CustomWeather, © 2016

See weather overviewHow to use our weather pages